Time,TemperatureF,DewpointF,PressureIn,WindDirection,WindDirectionDegrees,WindSpeedMPH,WindSpeedGustMPH,Humidity,HourlyPrecipIn,Conditions,Clouds,dailyrainin,SoftwareType,DateUTC
2013-04-09 00:02:00,68.0,54.0,-100.00,WNW,285,0.0,0.0,61,-99.99,,,-99.99,,2013-04-09 05:02:00,
2013-04-09 00:12:00,67.0,54.0,-100.00,NW,320,0.0,0.0,63,-99.99,,,-99.99,,2013-04-09 05:12:00,
2013-04-09 00:22:00,68.0,56.0,-100.00,WNW,285,0.0,0.0,64,-99.99,,,-99.99,,2013-04-09 05:22:00,
2013-04-09 00:32:00,68.0,56.0,-100.00,WNW,285,0.0,0.0,64,-99.99,,,-99.99,,2013-04-09 05:32:00,
2013-04-09 00:42:00,69.0,56.0,-100.00,WNW,285,0.0,0.0,64,-99.99,,,-99.99,,2013-04-09 05:42:00,
2013-04-09 00:52:00,69.0,56.0,-100.00,WNW,290,0.0,0.0,64,-99.99,,,-99.99,,2013-04-09 05:52:00,
2013-04-09 01:02:00,69.0,56.0,-100.00,WNW,290,0.0,0.0,64,-99.99,,,-99.99,,2013-04-09 06:02:00,
2013-04-09 01:12:00,69.0,56.0,-100.00,WNW,285,0.0,0.0,64,-99.99,,,-99.99,,2013-04-09 06:12:00,
2013-04-09 01:22:00,69.0,56.0,-100.00,WNW,290,0.0,0.0,64,-99.99,,,-99.99,,2013-04-09 06:22:00,
2013-04-09 01:32:00,69.0,56.0,-100.00,WNW,290,0.0,0.0,64,-99.99,,,-99.99,,2013-04-09 06:32:00,
2013-04-09 01:42:00,69.0,56.0,-100.00,WNW,300,0.0,0.0,64,-99.99,,,-99.99,,2013-04-09 06:42:00,
2013-04-09 01:52:00,69.0,57.0,-100.00,WNW,295,0.0,0.0,64,-99.99,,,-99.99,,2013-04-09 06:52:00,
2013-04-09 02:02:00,69.0,57.0,-100.00,WNW,295,0.0,0.0,64,-99.99,,,-99.99,,2013-04-09 07:02:00,
2013-04-09 02:13:00,69.0,56.0,-100.00,WNW,300,0.0,0.0,64,-99.99,,,-99.99,,2013-04-09 07:13:00,
2013-04-09 02:22:00,69.0,56.0,-100.00,WNW,300,0.0,0.0,65,-99.99,,,-99.99,,2013-04-09 07:22:00,
2013-04-09 02:32:00,69.0,56.0,-100.00,WNW,300,0.0,0.0,65,-99.99,,,-99.99,,2013-04-09 07:32:00,
2013-04-09 02:42:00,69.0,56.0,-100.00,WNW,300,0.0,0.0,65,-99.99,,,-99.99,,2013-04-09 07:42:00,
2013-04-09 02:53:00,68.0,57.0,-100.00,WNW,295,0.0,0.0,66,-99.99,,,-99.99,,2013-04-09 07:53:00,
2013-04-09 03:03:00,68.0,57.0,-100.00,WNW,295,0.0,0.0,66,-99.99,,,-99.99,,2013-04-09 08:03:00,
2013-04-09 03:12:00,68.0,56.0,-100.00,WNW,300,0.0,0.0,67,-99.99,,,-99.99,,2013-04-09 08:12:00,
2013-04-09 03:22:00,68.0,57.0,-100.00,NW,305,0.0,0.0,68,-99.99,,,-99.99,,2013-04-09 08:22:00,
2013-04-09 03:32:00,68.0,57.0,-100.00,NW,305,0.0,0.0,68,-99.99,,,-99.99,,2013-04-09 08:32:00,
2013-04-09 03:42:00,68.0,57.0,-100.00,WNW,295,0.0,0.0,69,-99.99,,,-99.99,,2013-04-09 08:42:00,
2013-04-09 03:52:00,67.0,57.0,-100.00,WNW,295,0.0,0.0,70,-99.99,,,-99.99,,2013-04-09 08:52:00,
2013-04-09 04:02:00,67.0,57.0,-100.00,WNW,295,0.0,0.0,70,-99.99,,,-99.99,,2013-04-09 09:02:00,
2013-04-09 04:12:00,67.0,57.0,-100.00,WNW,285,0.0,0.0,71,-99.99,,,-99.99,,2013-04-09 09:12:00,
2013-04-09 04:22:00,67.0,57.0,-100.00,WNW,295,0.0,0.0,71,-99.99,,,-99.99,,2013-04-09 09:22:00,
2013-04-09 04:33:00,67.0,57.0,-100.00,WNW,295,0.0,0.0,71,-99.99,,,-99.99,,2013-04-09 09:33:00,
2013-04-09 04:43:00,66.0,57.0,-100.00,West,275,0.0,0.0,72,-99.99,,,-99.99,,2013-04-09 09:43:00,
2013-04-09 04:53:00,66.0,57.0,-100.00,WNW,295,0.0,0.0,73,-99.99,,,-99.99,,2013-04-09 09:53:00,
2013-04-09 05:03:00,66.0,57.0,-100.00,WNW,295,0.0,0.0,73,-99.99,,,-99.99,,2013-04-09 10:03:00,
2013-04-09 05:13:00,66.0,58.0,-100.00,WNW,295,0.0,0.0,74,-99.99,,,-99.99,,2013-04-09 10:13:00,
2013-04-09 05:23:00,66.0,57.0,-100.00,West,280,0.0,0.0,74,-99.99,,,-99.99,,2013-04-09 10:23:00,
2013-04-09 05:33:00,66.0,57.0,-100.00,West,280,0.0,0.0,74,-99.99,,,-99.99,,2013-04-09 10:33:00,
2013-04-09 05:43:00,66.0,57.0,-100.00,WNW,295,0.0,0.0,74,-99.99,,,-99.99,,2013-04-09 10:43:00,
2013-04-09 05:53:00,66.0,57.0,-100.00,West,280,0.0,0.0,74,-99.99,,,-99.99,,2013-04-09 10:53:00,
2013-04-09 06:02:00,66.0,57.0,-100.00,West,280,0.0,0.0,74,-99.99,,,-99.99,,2013-04-09 11:02:00,
2013-04-09 06:12:00,66.0,57.0,-100.00,NW,305,0.0,0.0,74,-99.99,,,-99.99,,2013-04-09 11:12:00,
2013-04-09 06:22:00,66.0,57.0,-100.00,WNW,295,0.0,0.0,74,-99.99,,,-99.99,,2013-04-09 11:22:00,
2013-04-09 06:32:00,66.0,57.0,-100.00,WNW,295,0.0,0.0,74,-99.99,,,-99.99,,2013-04-09 11:32:00,
2013-04-09 06:42:00,66.0,57.0,-100.00,WNW,295,0.0,0.0,74,-99.99,,,-99.99,,2013-04-09 11:42:00,
2013-04-09 06:52:00,65.0,57.0,-100.00,WNW,290,0.0,0.0,75,-99.99,,,-99.99,,2013-04-09 11:52:00,
2013-04-09 07:02:00,65.0,57.0,-100.00,WNW,290,0.0,0.0,75,-99.99,,,-99.99,,2013-04-09 12:02:00,
2013-04-09 07:12:00,65.0,57.0,-100.00,WNW,285,0.0,0.0,75,-99.99,,,-99.99,,2013-04-09 12:12:00,
2013-04-09 07:22:00,65.0,57.0,-100.00,WNW,290,0.0,0.0,75,-99.99,,,-99.99,,2013-04-09 12:22:00,
2013-04-09 07:32:00,65.0,57.0,-100.00,WNW,290,0.0,0.0,75,-99.99,,,-99.99,,2013-04-09 12:32:00,
2013-04-09 07:42:00,66.0,58.0,-100.00,WNW,295,0.0,0.0,75,-99.99,,,-99.99,,2013-04-09 12:42:00,
2013-04-09 07:53:00,66.0,58.0,-100.00,West,280,0.0,0.0,75,-99.99,,,-99.99,,2013-04-09 12:53:00,
2013-04-09 08:02:00,66.0,58.0,-100.00,West,280,0.0,0.0,75,-99.99,,,-99.99,,2013-04-09 13:02:00,
2013-04-09 08:12:00,66.0,58.0,-100.00,WNW,295,0.0,0.0,75,-99.99,,,-99.99,,2013-04-09 13:12:00,
2013-04-09 08:23:00,66.0,58.0,-100.00,WNW,300,0.0,0.0,74,-99.99,,,-99.99,,2013-04-09 13:23:00,
2013-04-09 08:32:00,66.0,58.0,-100.00,WNW,300,0.0,0.0,74,-99.99,,,-99.99,,2013-04-09 13:32:00,
2013-04-09 08:42:00,66.0,58.0,-100.00,WNW,300,0.0,0.0,74,-99.99,,,-99.99,,2013-04-09 13:42:00,
2013-04-09 08:53:00,66.0,58.0,-100.00,WNW,295,0.0,0.0,74,-99.99,,,-99.99,,2013-04-09 13:53:00,
2013-04-09 09:03:00,66.0,58.0,-100.00,WNW,295,0.0,0.0,74,-99.99,,,-99.99,,2013-04-09 14:03:00,
2013-04-09 09:12:00,67.0,58.0,-100.00,WNW,295,0.0,0.0,74,-99.99,,,-99.99,,2013-04-09 14:12:00,
2013-04-09 09:22:00,67.0,58.0,-100.00,WNW,295,0.0,0.0,74,-99.99,,,-99.99,,2013-04-09 14:22:00,
2013-04-09 09:32:00,67.0,58.0,-100.00,WNW,295,0.0,0.0,74,-99.99,,,-99.99,,2013-04-09 14:32:00,
2013-04-09 09:42:00,67.0,58.0,-100.00,NW,305,0.0,0.0,74,-99.99,,,-99.99,,2013-04-09 14:42:00,
2013-04-09 09:52:00,67.0,58.0,-100.00,WNW,300,0.0,0.0,74,-99.99,,,-99.99,,2013-04-09 14:52:00,
2013-04-09 10:02:00,67.0,58.0,-100.00,WNW,300,0.0,0.0,74,-99.99,,,-99.99,,2013-04-09 15:02:00,
2013-04-09 10:12:00,67.0,58.0,-100.00,WNW,300,0.0,0.0,74,-99.99,,,-99.99,,2013-04-09 15:12:00,
2013-04-09 10:22:00,67.0,58.0,-100.00,NW,310,0.0,0.0,74,-99.99,,,-99.99,,2013-04-09 15:22:00,
2013-04-09 10:33:00,67.0,58.0,-100.00,NW,310,0.0,0.0,74,-99.99,,,-99.99,,2013-04-09 15:33:00,
2013-04-09 10:43:00,67.0,58.0,-100.00,NW,310,0.0,0.0,74,-99.99,,,-99.99,,2013-04-09 15:43:00,
2013-04-09 10:53:00,70.0,60.0,-100.00,WNW,300,0.0,0.0,71,-99.99,,,-99.99,,2013-04-09 15:53:00,
2013-04-09 11:03:00,70.0,60.0,-100.00,WNW,300,0.0,0.0,71,-99.99,,,-99.99,,2013-04-09 16:03:00,
2013-04-09 11:13:00,71.0,59.0,-100.00,WNW,295,0.0,0.0,67,-99.99,,,-99.99,,2013-04-09 16:13:00,
2013-04-09 11:23:00,72.0,59.0,-100.00,NW,315,0.0,0.0,64,-99.99,,,-99.99,,2013-04-09 16:23:00,
2013-04-09 11:33:00,72.0,59.0,-100.00,NW,315,0.0,0.0,64,-99.99,,,-99.99,,2013-04-09 16:33:00,
2013-04-09 11:42:00,73.0,59.0,-100.00,NW,315,0.0,0.0,62,-99.99,,,-99.99,,2013-04-09 16:42:00,
2013-04-09 11:54:00,74.0,59.0,-100.00,NW,310,0.0,0.0,60,-99.99,,,-99.99,,2013-04-09 16:54:00,
2013-04-09 12:02:00,74.0,59.0,-100.00,NW,310,0.0,0.0,60,-99.99,,,-99.99,,2013-04-09 17:02:00,
2013-04-09 12:13:00,74.0,58.0,-100.00,NW,315,0.0,0.0,58,-99.99,,,-99.99,,2013-04-09 17:13:00,
2013-04-09 12:23:00,74.0,58.0,-100.00,NW,310,0.0,0.0,57,-99.99,,,-99.99,,2013-04-09 17:23:00,
2013-04-09 12:32:00,74.0,58.0,-100.00,NW,310,0.0,0.0,57,-99.99,,,-99.99,,2013-04-09 17:32:00,
2013-04-09 12:42:00,74.0,58.0,-100.00,NW,305,0.0,0.0,57,-99.99,,,-99.99,,2013-04-09 17:42:00,
2013-04-09 12:54:00,75.0,58.0,-100.00,WNW,300,0.0,0.0,57,-99.99,,,-99.99,,2013-04-09 17:54:00,
2013-04-09 13:02:00,75.0,58.0,-100.00,WNW,300,0.0,0.0,57,-99.99,,,-99.99,,2013-04-09 18:02:00,
2013-04-09 13:12:00,74.0,58.0,-100.00,NW,305,0.0,0.0,57,-99.99,,,-99.99,,2013-04-09 18:12:00,
2013-04-09 13:22:00,74.0,58.0,-100.00,NW,310,0.0,0.0,58,-99.99,,,-99.99,,2013-04-09 18:22:00,
2013-04-09 13:33:00,74.0,58.0,-100.00,NW,310,0.0,0.0,58,-99.99,,,-99.99,,2013-04-09 18:33:00,
2013-04-09 13:43:00,72.0,58.0,-100.00,NW,305,0.0,0.0,60,-99.99,,,-99.99,,2013-04-09 18:43:00,
2013-04-09 13:53:00,72.0,58.0,-100.00,NW,310,0.0,0.0,61,-99.99,,,-99.99,,2013-04-09 18:53:00,
2013-04-09 14:03:00,72.0,58.0,-100.00,NW,310,0.0,0.0,61,-99.99,,,-99.99,,2013-04-09 19:03:00,
2013-04-09 14:12:00,72.0,58.0,-100.00,NW,310,0.0,0.0,61,-99.99,,,-99.99,,2013-04-09 19:12:00,
2013-04-09 14:32:00,76.0,60.0,-100.00,WNW,295,0.0,0.0,58,-99.99,,,-99.99,,2013-04-09 19:32:00,
2013-04-09 14:53:00,76.0,60.0,-100.00,NW,305,0.0,0.0,58,-99.99,,,-99.99,,2013-04-09 19:53:00,
2013-04-09 15:02:00,76.0,60.0,-100.00,NW,305,0.0,0.0,58,-99.99,,,-99.99,,2013-04-09 20:02:00,
2013-04-09 15:12:00,76.0,60.0,-100.00,WNW,295,0.0,0.0,58,-99.99,,,-99.99,,2013-04-09 20:12:00,
2013-04-09 15:22:00,76.0,60.0,-100.00,WNW,295,0.0,0.0,58,-99.99,,,-99.99,,2013-04-09 20:22:00,
2013-04-09 15:31:00,76.0,60.0,-100.00,NW,310,0.0,0.0,58,-99.99,,,-99.99,,2013-04-09 20:31:00,
2013-04-09 15:44:00,76.0,60.0,-100.00,NW,305,0.0,0.0,57,-99.99,,,-99.99,,2013-04-09 20:44:00,
2013-04-09 15:53:00,76.0,59.0,-100.00,WNW,300,0.0,0.0,57,-99.99,,,-99.99,,2013-04-09 20:53:00,
2013-04-09 16:02:00,76.0,59.0,-100.00,WNW,300,0.0,0.0,57,-99.99,,,-99.99,,2013-04-09 21:02:00,
2013-04-09 16:13:00,76.0,60.0,-100.00,NW,310,0.0,0.0,58,-99.99,,,-99.99,,2013-04-09 21:13:00,
2013-04-09 16:22:00,76.0,60.0,-100.00,NW,310,0.0,0.0,58,-99.99,,,-99.99,,2013-04-09 21:22:00,
2013-04-09 16:53:00,77.0,60.0,-100.00,WNW,290,0.0,0.0,57,-99.99,,,-99.99,,2013-04-09 21:53:00,
2013-04-09 17:03:00,77.0,60.0,-100.00,WNW,290,0.0,0.0,57,-99.99,,,-99.99,,2013-04-09 22:03:00,
2013-04-09 17:13:00,78.0,61.0,-100.00,NW,320,0.0,0.0,56,-99.99,,,-99.99,,2013-04-09 22:13:00,
2013-04-09 17:23:00,78.0,60.0,-100.00,NW,320,0.0,0.0,54,-99.99,,,-99.99,,2013-04-09 22:23:00,
2013-04-09 17:33:00,78.0,60.0,-100.00,NW,320,0.0,0.0,54,-99.99,,,-99.99,,2013-04-09 22:33:00,
2013-04-09 17:42:00,77.0,59.0,-100.00,NW,315,0.0,0.0,54,-99.99,,,-99.99,,2013-04-09 22:42:00,
2013-04-09 17:53:00,77.0,59.0,-100.00,NW,310,0.0,0.0,55,-99.99,,,-99.99,,2013-04-09 22:53:00,
2013-04-09 18:03:00,77.0,59.0,-100.00,NW,310,0.0,0.0,55,-99.99,,,-99.99,,2013-04-09 23:03:00,
2013-04-09 18:12:00,76.0,59.0,-100.00,WNW,285,0.0,0.0,55,-99.99,,,-99.99,,2013-04-09 23:12:00,
2013-04-09 18:23:00,76.0,60.0,-100.00,WNW,295,0.0,0.0,56,-99.99,,,-99.99,,2013-04-09 23:23:00,
2013-04-09 18:32:00,76.0,60.0,-100.00,WNW,295,0.0,0.0,56,-99.99,,,-99.99,,2013-04-09 23:32:00,
2013-04-09 18:42:00,77.0,59.0,-100.00,NW,305,0.0,0.0,55,-99.99,,,-99.99,,2013-04-09 23:42:00,
2013-04-09 18:53:00,77.0,59.0,-100.00,NW,310,0.0,0.0,55,-99.99,,,-99.99,,2013-04-09 23:53:00,
2013-04-09 19:03:00,77.0,59.0,-100.00,NW,310,0.0,0.0,55,-99.99,,,-99.99,,2013-04-10 00:03:00,
2013-04-09 19:12:00,77.0,59.0,-100.00,NW,310,0.0,0.0,55,-99.99,,,-99.99,,2013-04-10 00:12:00,
2013-04-09 19:23:00,76.0,60.0,-100.00,WNW,295,0.0,0.0,57,-99.99,,,-99.99,,2013-04-10 00:23:00,
2013-04-09 19:32:00,76.0,60.0,-100.00,WNW,295,0.0,0.0,57,-99.99,,,-99.99,,2013-04-10 00:32:00,
2013-04-09 19:42:00,76.0,60.0,-100.00,WNW,295,0.0,0.0,57,-99.99,,,-99.99,,2013-04-10 00:42:00,
2013-04-09 19:53:00,76.0,59.0,-100.00,WNW,290,0.0,0.0,56,-99.99,,,-99.99,,2013-04-10 00:53:00,
2013-04-09 20:02:00,76.0,59.0,-100.00,WNW,290,0.0,0.0,56,-99.99,,,-99.99,,2013-04-10 01:02:00,
2013-04-09 20:12:00,75.0,59.0,-100.00,WNW,295,0.0,0.0,57,-99.99,,,-99.99,,2013-04-10 01:12:00,
2013-04-09 20:23:00,74.0,59.0,-100.00,NW,315,0.0,0.0,58,-99.99,,,-99.99,,2013-04-10 01:23:00,
2013-04-09 20:32:00,74.0,59.0,-100.00,NW,315,0.0,0.0,58,-99.99,,,-99.99,,2013-04-10 01:32:00,
2013-04-09 20:42:00,72.0,58.0,-100.00,NNW,330,0.0,0.0,60,-99.99,,,-99.99,,2013-04-10 01:42:00,
2013-04-09 20:53:00,71.0,58.0,-100.00,East,85,0.0,0.0,64,-99.99,,,-99.99,,2013-04-10 01:53:00,
2013-04-09 21:02:00,71.0,58.0,-100.00,East,85,0.0,0.0,64,-99.99,,,-99.99,,2013-04-10 02:02:00,
2013-04-09 21:12:00,70.0,59.0,-100.00,ENE,75,0.0,0.0,68,-99.99,,,-99.99,,2013-04-10 02:12:00,
2013-04-09 21:22:00,70.0,59.0,-100.00,West,260,0.0,0.0,69,-99.99,,,-99.99,,2013-04-10 02:22:00,
2013-04-09 21:32:00,70.0,59.0,-100.00,West,260,0.0,0.0,69,-99.99,,,-99.99,,2013-04-10 02:32:00,
2013-04-09 21:43:00,68.0,58.0,-100.00,SSE,165,0.0,0.0,71,-99.99,,,-99.99,,2013-04-10 02:43:00,
2013-04-09 21:53:00,67.0,59.0,-100.00,West,260,0.0,0.0,74,-99.99,,,-99.99,,2013-04-10 02:53:00,
2013-04-09 22:03:00,67.0,59.0,-100.00,West,260,0.0,0.0,74,-99.99,,,-99.99,,2013-04-10 03:03:00,
2013-04-09 22:12:00,68.0,60.0,-100.00,West,260,0.0,0.0,77,-99.99,,,-99.99,,2013-04-10 03:12:00,
2013-04-09 22:22:00,67.0,60.0,-100.00,West,280,0.0,0.0,77,-99.99,,,-99.99,,2013-04-10 03:22:00,
2013-04-09 22:33:00,67.0,60.0,-100.00,West,280,0.0,0.0,77,-99.99,,,-99.99,,2013-04-10 03:33:00,
2013-04-09 22:43:00,67.0,60.0,-100.00,WNW,285,0.0,0.0,78,-99.99,,,-99.99,,2013-04-10 03:43:00,
2013-04-09 22:53:00,66.0,59.0,-100.00,WNW,300,0.0,0.0,79,-99.99,,,-99.99,,2013-04-10 03:53:00,
2013-04-09 23:03:00,66.0,59.0,-100.00,WNW,300,0.0,0.0,79,-99.99,,,-99.99,,2013-04-10 04:03:00,
2013-04-09 23:13:00,65.0,59.0,-100.00,NW,305,0.0,0.0,81,-99.99,,,-99.99,,2013-04-10 04:13:00,
2013-04-09 23:23:00,67.0,62.0,-100.00,WNW,290,0.0,0.0,84,-99.99,,,-99.99,,2013-04-10 04:23:00,
2013-04-09 23:33:00,67.0,62.0,-100.00,WNW,290,0.0,0.0,84,-99.99,,,-99.99,,2013-04-10 04:33:00,
2013-04-09 23:43:00,70.0,63.0,-100.00,WNW,295,0.0,0.0,80,-99.99,,,-99.99,,2013-04-10 04:43:00,
2013-04-09 23:53:00,71.0,63.0,-100.00,West,280,0.0,0.0,76,-99.99,,,-99.99,,2013-04-10 04:53:00,